Tracking 30074 objects as of 13-Jan-2025
HD Live streaming from Space Station
objects crossing your sky now

STARLINK-2606

Track STARLINK-2606 now!
10-day predictions
STARLINK-2606 is classified as:


NORAD ID: 48386
Int'l Code: 2021-038AK
Perigee: 553.6 km
Apogee: 555.1 km
Inclination: 53.1 °
Period: 95.6 minutes
Semi major axis: 6925 km
RCS: Unknown
Launch date: May 4, 2021
Source: United States (US)
Launch site: AIR FORCE EASTERN TEST RANGE (AFETR)
Your satellite tracking list
Your tracking list is empty




NASA's NSSDC Master Catalog

Two Line Element Set (TLE):
1 48386U 21038AK  25013.19458004 -.00001755  00000-0 -98944-4 0  9993
2 48386  53.0554  74.3012 0001079 101.1367 258.9743 15.06406886204442
Source of the keplerian elements: AFSPC